Temp
-23 -22 -22 -22 -22 -22 -22 -23 -22 -22 -22 -22 -21 -20 -21 -21 -21 -21 -21 -21 -21 -21 -21 -21 -21 -21 -21 -21 -21 -21 -22 -23 -21 -22 -22 -22 -22 -22 -22 -22 -21 -20 -20 -18
-24 -24 -23 -23 -22 -22 -23 -23 -22 -22 -22 -22 -21 -21 -21 -21 -21 -21 -21 -22 -22 -22 -21 -21 -21 -21 -21 -22 -22 -22 -23 -24 -23 -22 -23 -23 -23 -22 -22 -22 -21 -21 -21 -18
-24 -24 -24 -24 -24 -23 -23 -23 -23 -22 -22 -22 -22 -22 -22 -22 -22 -22 -22 -22 -22 -22 -22 -22 -21 -21 -22 -22 -23 -23 -24 -24 -23 -23 -23 -23 -23 -22 -22 -22 -21 -21 -20 -20
-24 -25 -25 -25 -24 -24 -23 -23 -22 -22 -22 -22 -22 -22 -22 -22 -22 -22 -22 -22 -22 -22 -21 -21 -22 -21 -22 -23 -23 -24 -24 -24 -24 -23 -23 -23 -23 -22 -23 -22 -21 -22 -21 -21
-25 -25 -25 -25 -25 -25 -24 -23 -23 -23 -22 -23 -23 -22 -22 -22 -23 -22 -22 -22 -23 -22 -21 -22 -21 -22 -22 -23 -23 -24 -24 -24 -24 -23 -23 -23 -22 -22 -23 -22 -21 -21 -21 -21
-25 -25 -26 -25 -25 -25 -24 -24 -24 -24 -23 -23 -23 -23 -23 -23 -23 -22 -22 -22 -22 -22 -23 -22 -21 -22 -22 -23 -23 -24 -24 -24 -23 -23 -23 -23 -22 -22 -23 -22 -22 -22 -21 -22
-26 -26 -26 -26 -25 -25 -25 -24 -25 -24 -24 -23 -23 -23 -23 -23 -23 -22 -22 -22 -22 -24 -22 -21 -22 -22 -23 -23 -23 -24 -23 -24 -24 -23 -23 -23 -22 -23 -23 -22 -22 -22 -21 -22
-27 -26 -26 -26 -26 -26 -25 -25 -25 -24 -24 -24 -23 -23 -23 -23 -23 -22 -22 -23 -22 -23 -22 -23 -23 -23 -23 -23 -23 -23 -23 -23 -24 -24 -23 -22 -22 -22 -22 -22 -22 -22 -22 -22
-27 -27 -27 -27 -26 -26 -26 -25 -25 -25 -24 -24 -24 -23 -23 -23 -23 -23 -23 -23 -23 -23 -23 -23 -23 -23 -23 -24 -23 -24 -24 -24 -24 -24 -23 -23 -22 -23 -23 -23 -23 -23 -23 -23
-27 -27 -27 -28 -27 -27 -26 -26 -25 -25 -24 -24 -24 -24 -23 -23 -23 -23 -23 -23 -24 -24 -24 -23 -23 -23 -23 -24 -24 -24 -24 -24 -23 -23 -23 -23 -23 -23 -23 -23 -23 -23 -24 -23
-27 -27 -27 -27 -27 -27 -27 -27 -26 -25 -24 -25 -24 -24 -24 -23 -24 -24 -23 -23 -23 -24 -23 -23 -23 -23 -23 -23 -24 -24 -24 -23 -23 -23 -23 -23 -23 -23 -24 -24 -24 -24 -24 -23
-27 -27 -27 -27 -27 -27 -27 -27 -26 -26 -25 -25 -25 -24 -24 -24 -24 -23 -23 -23 -23 -23 -23 -23 -24 -23 -23 -24 -23 -23 -23 -24 -24 -23 -23 -23 -23 -24 -24 -24 -23 -24 -23 -23
-28 -28 -27 -27 -27 -27 -26 -27 -26 -26 -25 -25 -25 -25 -24 -24 -24 -24 -23 -23 -23 -23 -24 -24 -23 -24 -24 -24 -24 -23 -23 -23 -24 -23 -23 -23 -23 -24 -24 -24 -23 -23 -23 -22
-28 -28 -27 -27 -27 -27 -27 -27 -26 -26 -25 -24 -25 -24 -24 -24 -24 -23 -23 -23 -23 -23 -23 -23 -24 -24 -23 -23 -23 -23 -23 -23 -23 -23 -23 -24 -24 -24 -24 -23 -23 -23 -23 -22
-29 -28 -28 -27 -27 -27 -26 -27 -26 -26 -25 -24 -24 -24 -24 -24 -23 -23 -23 -23 -23 -23 -24 -23 -23 -23 -23 -23 -23 -23 -23 -23 -23 -23 -23 -23 -23 -24 -24 -23 -23 -23 -22 -23
-29 -28 -28 -28 -28 -27 -27 -27 -26 -26 -25 -24 -24 -24 -24 -24 -23 -23 -23 -23 -23 -23 -23 -23 -24 -24 -24 -23 -23 -23 -23 -23 -23 -23 -24 -24 -24 -24 -23 -23 -23 -23 -23 -23
-29 -28 -28 -28 -28 -27 -27 -26 -26 -25 -25 -24 -25 -24 -24 -24 -23 -23 -23 -23 -23 -23 -24 -24 -24 -24 -24 -23 -23 -24 -24 -23 -24 -24 -24 -24 -23 -23 -23 -23 -23 -23 -23 -23
-29 -29 -29 -28 -28 -27 -26 -26 -26 -26 -25 -25 -25 -25 -24 -23 -23 -23 -23 -24 -24 -24 -24 -24 -24 -24 -24 -24 -24 -24 -24 -24 -24 -24 -24 -23 -23 -23 -23 -23 -23 -23 -23 -23
-28 -29 -28 -28 -27 -27 -26 -26 -26 -26 -25 -25 -25 -25 -24 -24 -24 -24 -24 -24 -24 -24 -24 -24 -24 -24 -24 -25 -24 -24 -24 -24 -24 -24 -24 -23 -23 -23 -23 -23 -23 -23 -23 -23
-29 -28 -28 -27 -27 -26 -26 -26 -26 -26 -26 -25 -25 -25 -24 -24 -24 -24 -24 -24 -24 -24 -24 -24 -24 -24 -25 -25 -24 -24 -24 -24 -24 -24 -24 -23 -23 -23 -24 -23 -23 -23 -23 -23
-28 -28 -27 -27 -27 -26 -26 -26 -26 -25 -25 -25 -25 -25 -25 -25 -25 -25 -25 -25 -24 -24 -25 -24 -25 -25 -25 -24 -24 -24 -24 -24 -24 -24 -24 -24 -23 -24 -24 -24 -23 -23 -23 -23
-28 -28 -27 -27 -27 -27 -26 -26 -26 -26 -25 -25 -25 -25 -25 -25 -25 -25 -25 -25 -25 -24 -24 -24 -25 -25 -25 -25 -24 -24 -24 -24 -24 -24 -24 -24 -24 -24 -24 -24 -23 -23 -23 -23
-28 -28 -27 -27 -27 -27 -26 -26 -26 -26 -26 -25 -25 -25 -25 -25 -25 -25 -25 -25 -25 -25 -25 -25 -25 -25 -25 -25 -24 -24 -24 -24 -24 -24 -24 -24 -24 -24 -24 -24 -24 -24 -23 -24
-28 -28 -27 -27 -27 -27 -26 -26 -26 -26 -26 -25 -26 -26 -26 -25 -25 -25 -25 -25 -25 -25 -25 -25 -25 -25 -25 -24 -24 -24 -24 -24 -24 -25 -24 -24 -25 -25 -25 -24 -24 -24 -24 -24
-28 -28 -27 -27 -27 -27 -27 -27 -26 -26 -26 -26 -26 -26 -26 -26 -26 -26 -26 -26 -26 -25 -25 -25 -25 -25 -25 -24 -24 -24 -24 -25 -25 -25 -25 -25 -25 -25 -25 -25 -25 -24 -24 -24
-28 -27 -27 -27 -28 -27 -27 -27 -27 -27 -26 -26 -26 -26 -26 -26 -26 -26 -26 -26 -26 -26 -25 -25 -25 -25 -25 -25 -25 -25 -25 -25 -25 -25 -25 -25 -25 -25 -26 -25 -25 -25 -25 -25
-28 -28 -28 -28 -28 -28 -28 -27 -27 -27 -27 -27 -27 -26 -26 -27 -26 -26 -26 -26 -26 -26 -26 -26 -26 -26 -26 -25 -25 -25 -25 -26 -26 -26 -26 -25 -26 -26 -26 -26 -26 -26 -25 -25
Height
5541 5547 5554 5561 5569 5578 5585 5592 5597 5602 5607 5613 5619 5625 5629 5632 5634 5635 5636 5637 5639 5640 5641 5642 5641 5642 5640 5638 5636 5637 5636 5632 5636 5641 5642 5642 5641 5644 5645 5645 5648 5649 5649 5657
5528 5535 5543 5548 5556 5566 5574 5580 5586 5591 5597 5603 5611 5616 5619 5622 5625 5625 5627 5628 5630 5631 5631 5629 5630 5632 5633 5630 5628 5628 5626 5621 5625 5630 5633 5634 5632 5636 5636 5638 5639 5639 5638 5646
5517 5525 5531 5540 5547 5554 5560 5567 5574 5581 5589 5596 5601 5605 5610 5611 5613 5614 5616 5620 5621 5619 5618 5616 5621 5623 5621 5620 5617 5616 5614 5615 5618 5622 5623 5625 5625 5627 5627 5629 5629 5630 5632 5635
5505 5514 5520 5530 5537 5545 5553 5559 5567 5575 5581 5587 5592 5595 5599 5602 5604 5605 5607 5610 5607 5606 5609 5605 5610 5612 5609 5607 5607 5608 5605 5608 5611 5614 5614 5615 5615 5617 5618 5620 5621 5619 5625 5624
5495 5504 5510 5518 5527 5534 5543 5552 5560 5565 5574 5577 5582 5585 5592 5592 5594 5595 5597 5599 5596 5596 5597 5597 5596 5596 5595 5596 5597 5598 5600 5603 5603 5606 5607 5606 5607 5610 5609 5611 5613 5612 5615 5618
5486 5494 5502 5510 5518 5527 5536 5543 5550 5557 5564 5568 5573 5580 5583 5583 5583 5587 5586 5586 5586 5587 5586 5585 5587 5586 5586 5588 5589 5592 5594 5596 5597 5599 5600 5598 5600 5604 5602 5603 5604 5605 5606 5611
5477 5486 5494 5502 5510 5520 5527 5535 5541 5548 5554 5560 5565 5571 5573 5573 5575 5576 5578 5577 5577 5578 5573 5575 5577 5577 5579 5581 5583 5585 5589 5590 5591 5592 5593 5592 5595 5596 5596 5596 5596 5597 5598 5600
5469 5478 5487 5495 5504 5511 5519 5525 5532 5539 5545 5551 5556 5560 5562 5563 5565 5568 5568 5568 5567 5562 5563 5567 5569 5571 5573 5576 5577 5580 5583 5584 5585 5585 5586 5586 5586 5587 5588 5587 5588 5588 5590 5592
5459 5469 5479 5488 5496 5503 5511 5517 5524 5531 5536 5542 5548 5552 5554 5556 5556 5557 5555 5554 5554 5553 5558 5561 5564 5565 5568 5570 5573 5576 5578 5579 5580 5581 5580 5579 5582 5581 5580 5580 5583 5581 5582 5585
5453 5461 5469 5479 5487 5495 5503 5509 5515 5522 5527 5536 5542 5544 5547 5549 5550 5550 5550 5549 5549 5551 5554 5555 5559 5562 5564 5565 5569 5573 5573 5575 5575 5575 5574 5575 5577 5574 5574 5577 5579 5577 5580 5584
5448 5455 5461 5469 5478 5486 5494 5503 5507 5514 5520 5529 5533 5535 5539 5541 5543 5544 5546 5546 5547 5548 5549 5552 5555 5557 5559 5561 5564 5567 5569 5569 5568 5569 5569 5571 5570 5570 5570 5571 5573 5576 5578 5581
5444 5450 5456 5462 5470 5477 5486 5494 5500 5506 5509 5520 5524 5528 5531 5535 5537 5539 5541 5543 5543 5545 5546 5548 5550 5553 5555 5557 5559 5561 5563 5563 5564 5565 5566 5565 5564 5564 5566 5568 5570 5574 5576 5577
5439 5444 5451 5456 5464 5471 5480 5487 5492 5497 5502 5512 5516 5522 5524 5527 5532 5535 5538 5538 5540 5542 5544 5545 5546 5548 5551 5553 5555 5555 5557 5557 5558 5559 5561 5559 5559 5560 5562 5565 5568 5570 5572 5573
5434 5439 5446 5453 5459 5467 5474 5481 5487 5492 5498 5504 5510 5513 5517 5521 5526 5530 5533 5534 5536 5538 5539 5540 5542 5544 5546 5548 5548 5550 5552 5552 5554 5555 5555 5554 5555 5557 5560 5563 5565 5566 5568 5569
5429 5435 5441 5448 5455 5462 5469 5476 5482 5488 5495 5500 5504 5508 5511 5515 5521 5525 5527 5529 5531 5533 5534 5535 5537 5539 5541 5542 5543 5546 5545 5546 5547 5547 5546 5549 5551 5555 5558 5560 5561 5563 5564 5565
5425 5431 5438 5445 5452 5459 5465 5472 5479 5485 5491 5495 5499 5503 5506 5511 5516 5520 5523 5524 5526 5527 5528 5528 5530 5532 5535 5535 5538 5540 5540 5541 5542 5543 5544 5546 5549 5552 5554 5556 5557 5559 5560 5560
5423 5428 5435 5442 5450 5457 5463 5473 5478 5482 5486 5491 5495 5498 5502 5508 5512 5515 5518 5520 5522 5522 5523 5523 5523 5526 5527 5529 5533 5533 5535 5537 5538 5540 5541 5544 5546 5549 5551 5552 5554 5555 5556 5556
5423 5428 5434 5442 5449 5455 5463 5470 5475 5479 5484 5488 5492 5495 5500 5505 5509 5512 5514 5516 5516 5517 5517 5517 5517 5519 5521 5524 5526 5530 5532 5534 5536 5538 5540 5542 5544 5546 5548 5549 5550 5551 5552 5551
5422 5429 5436 5443 5449 5454 5462 5469 5473 5479 5483 5486 5489 5493 5497 5502 5505 5508 5510 5511 5512 5512 5511 5511 5512 5514 5517 5521 5523 5527 5530 5532 5535 5537 5539 5541 5542 5543 5545 5546 5547 5547 5547 5546
5424 5432 5438 5444 5449 5455 5460 5466 5472 5476 5480 5483 5487 5491 5494 5499 5503 5505 5507 5507 5508 5508 5508 5507 5509 5510 5512 5515 5519 5522 5525 5529 5532 5534 5537 5538 5539 5540 5541 5542 5542 5543 5542 5541
5427 5433 5438 5445 5449 5455 5460 5465 5470 5475 5479 5482 5485 5488 5492 5496 5500 5501 5503 5503 5504 5504 5505 5505 5506 5506 5507 5511 5515 5518 5522 5525 5528 5530 5532 5534 5535 5536 5537 5537 5537 5537 5537 5536
5428 5434 5441 5445 5450 5455 5460 5464 5469 5474 5478 5481 5484 5487 5491 5494 5496 5497 5499 5499 5500 5500 5500 5501 5503 5504 5505 5508 5512 5515 5519 5521 5523 5525 5527 5529 5530 5531 5531 5532 5532 5532 5532 5531
5430 5436 5441 5446 5450 5455 5458 5463 5468 5472 5476 5480 5482 5485 5488 5490 5492 5493 5494 5495 5497 5497 5498 5499 5501 5502 5503 5505 5508 5511 5513 5516 5518 5520 5523 5524 5525 5525 5526 5527 5527 5527 5526 5526
5430 5436 5441 5445 5450 5454 5459 5463 5467 5471 5474 5477 5480 5482 5485 5486 5487 5488 5490 5492 5493 5494 5496 5497 5498 5499 5501 5502 5504 5505 5508 5510 5512 5514 5516 5518 5519 5519 5520 5521 5521 5521 5521 5520
5430 5435 5440 5443 5448 5453 5458 5462 5466 5469 5472 5475 5477 5479 5482 5482 5484 5485 5487 5488 5489 5491 5491 5492 5493 5495 5496 5498 5499 5501 5502 5504 5506 5508 5510 5511 5511 5512 5513 5514 5514 5515 5514 5513
5430 5435 5439 5443 5447 5451 5456 5459 5463 5466 5469 5472 5474 5475 5477 5478 5480 5481 5482 5484 5485 5486 5487 5488 5489 5490 5491 5493 5494 5495 5497 5498 5500 5501 5502 5503 5504 5505 5505 5506 5508 5508 5507 5506
5429 5433 5438 5441 5446 5450 5453 5457 5460 5462 5465 5467 5469 5471 5472 5474 5475 5477 5478 5479 5480 5481 5482 5483 5484 5485 5486 5487 5488 5489 5491 5492 5493 5494 5494 5495 5496 5498 5498 5499 5499 5499 5498 5498
Wind_Speed
53 54 54 52 51 47 46 43 44 41 40 41 40 38 36 35 33 36 37 36 35 33 34 38 40 41 41 44 48 46 42 44 47 36 36 36 41 43 44 45 43 44 43 41
53 51 51 50 51 49 47 46 47 43 40 40 37 35 35 35 35 36 35 35 33 32 36 42 44 44 42 44 45 45 39 39 38 40 34 30 33 34 40 43 44 48 44 41
55 52 52 53 50 48 45 43 42 41 39 36 37 36 35 35 36 36 33 33 32 34 37 40 44 43 45 49 47 42 38 37 32 28 29 36 32 29 26 30 38 39 42 46
56 54 53 52 51 50 50 47 46 44 42 38 36 37 37 36 36 34 33 34 34 37 41 45 42 46 48 48 41 38 37 34 29 29 31 31 32 37 36 32 24 32 34 36
54 51 52 51 51 49 49 46 45 43 41 38 38 38 35 35 33 34 34 35 37 41 45 43 46 45 43 42 40 33 33 28 28 27 28 21 33 29 28 29 27 23 23 25
53 50 49 48 47 45 44 42 40 40 39 39 38 35 33 33 33 33 34 36 40 39 43 44 49 45 41 36 34 29 28 27 26 28 27 20 22 17 20 27 29 26 24 21
50 48 49 45 44 41 41 40 39 39 39 39 35 33 32 31 31 32 34 39 40 36 46 47 39 41 39 34 28 28 25 25 26 25 28 26 23 19 19 19 23 25 23 22
57 45 49 43 44 42 42 41 40 40 40 37 35 31 31 31 30 33 37 37 38 43 45 42 35 35 34 28 25 25 25 25 22 26 25 29 29 22 24 23 20 22 24 27
34 53 47 45 44 44 44 42 40 41 41 37 30 29 29 29 31 32 33 32 31 38 38 38 34 30 28 23 23 23 23 21 22 23 26 31 28 25 25 27 20 22 24 17
38 33 50 51 45 49 44 39 41 42 42 34 26 27 28 30 28 24 22 26 26 29 31 30 29 23 21 19 21 19 21 20 21 21 25 23 22 24 26 23 13 10 9 9
41 35 34 51 53 45 46 42 42 44 44 35 32 31 28 27 19 19 23 22 20 22 22 24 20 17 16 17 18 17 22 20 14 13 15 20 23 20 14 13 12 10 9 10
37 36 31 39 50 53 50 47 46 45 42 36 31 29 29 23 21 22 21 17 14 17 19 17 15 15 16 14 16 19 16 13 17 18 14 19 16 17 12 14 11 9 9 9
35 35 33 31 36 36 34 29 30 31 32 27 27 26 27 22 26 21 18 16 15 16 16 16 17 16 12 12 17 19 18 18 18 20 16 16 19 19 17 15 13 10 9 12
32 30 33 30 32 31 30 32 33 32 29 26 26 26 22 25 27 24 25 20 17 14 16 16 20 20 22 21 21 22 20 22 21 21 16 15 20 20 15 14 9 9 11 11
30 29 31 29 28 28 29 32 32 29 27 24 22 23 25 29 28 27 22 19 16 22 25 26 26 26 28 29 28 22 22 21 21 19 22 19 18 15 11 12 9 10 9 12
28 32 33 34 33 32 32 31 29 26 23 21 20 20 24 31 32 29 28 24 23 22 30 30 28 26 28 29 28 21 20 22 21 19 21 14 12 12 11 9 8 9 10 14
22 28 31 35 34 32 29 25 25 21 19 18 19 19 26 29 25 24 26 24 22 26 26 25 26 25 26 28 26 23 18 19 15 15 13 14 12 10 8 8 8 9 12 15
20 27 27 25 24 25 24 22 20 18 21 21 23 20 22 23 24 20 17 18 19 20 22 24 24 23 23 20 20 17 15 15 13 14 12 11 10 9 9 9 10 12 13 15
28 27 27 29 26 25 23 24 21 19 19 21 21 19 20 18 17 15 15 13 11 12 15 18 19 18 16 19 18 23 20 18 13 14 13 10 9 9 11 11 13 13 13 14
30 31 35 29 23 26 25 19 19 18 17 16 18 19 19 17 15 16 13 12 11 11 11 12 11 15 19 28 19 23 23 19 18 18 15 13 12 13 14 15 15 14 13 12
32 35 34 25 23 24 20 19 24 22 15 16 15 14 14 16 15 14 15 14 14 11 11 9 8 15 21 27 25 22 21 23 21 18 21 20 19 17 17 16 15 14 13 12
36 35 31 25 25 23 21 23 23 19 17 12 13 11 14 18 16 16 16 17 15 9 9 9 9 13 18 22 26 26 22 20 20 20 20 19 19 18 19 18 16 14 13 13
32 31 30 25 26 25 26 24 23 21 17 17 12 15 17 20 19 19 18 17 13 8 9 10 12 14 15 19 22 25 27 27 25 25 22 21 20 20 20 18 18 16 15 15
34 29 28 27 24 26 25 22 21 20 19 16 14 11 8 11 12 15 14 13 10 9 11 13 15 16 16 15 17 21 24 24 23 25 24 22 23 22 20 19 19 18 18 17
36 33 32 32 27 23 21 19 18 18 16 15 14 13 13 13 13 13 12 13 11 10 13 16 17 16 17 18 19 19 19 20 22 23 24 26 25 23 21 20 21 20 21 20
36 38 34 32 28 23 19 20 22 22 20 19 18 16 15 16 15 14 14 13 11 13 14 16 17 16 16 15 16 18 19 18 19 21 23 24 25 23 22 22 21 22 24 23
36 35 32 25 26 23 18 17 19 20 20 21 22 21 19 17 17 15 15 16 16 15 16 17 18 17 15 15 16 17 18 18 20 21 23 24 23 23 24 22 23 26 27 27
Wind_Direction
232 234 231 232 232 235 235 233 238 243 247 249 251 254 258 255 255 258 260 259 260 260 266 270 274 279 283 288 288 286 280 276 275 274 271 265 254 250 246 250 254 257 260 255
228 229 234 237 238 239 239 240 243 244 247 250 254 254 249 251 255 261 258 256 260 265 272 276 277 281 283 284 283 282 275 267 271 271 260 264 264 261 258 257 261 256 256 256
227 228 230 232 236 244 247 250 253 249 252 253 249 244 246 252 256 258 258 255 262 268 271 274 278 282 283 280 274 270 265 260 264 267 263 256 262 255 257 262 262 267 266 259
224 226 229 232 231 235 238 241 246 247 249 247 241 242 246 254 262 259 256 257 264 270 277 275 284 285 277 265 264 262 258 257 260 258 260 269 263 254 264 257 273 275 270 264
223 224 227 230 233 233 235 236 238 238 239 237 240 245 249 264 264 258 256 259 266 272 277 283 284 285 278 262 259 256 250 247 254 249 262 279 254 261 262 267 261 261 268 260
222 222 227 228 231 234 237 236 235 235 235 237 242 249 258 259 260 263 266 267 272 276 278 283 288 283 270 261 257 251 241 241 252 250 257 269 263 260 267 262 262 263 265 263
220 220 224 227 228 230 232 230 231 235 237 244 250 256 262 261 260 267 268 271 275 274 276 282 277 276 266 260 252 242 234 236 246 253 257 257 257 268 278 294 272 266 258 251
219 220 223 226 228 229 231 234 235 239 243 248 254 264 261 262 266 272 272 274 278 274 270 262 267 260 255 252 246 235 235 240 254 259 258 258 270 291 295 302 279 256 256 256
222 221 221 224 229 232 235 236 239 242 246 250 257 256 260 266 272 275 284 289 283 258 251 255 264 248 251 246 240 234 240 251 259 270 272 267 286 298 299 299 293 258 244 218
230 227 222 222 227 229 234 239 243 246 249 251 246 253 255 261 261 271 271 280 274 257 251 269 247 244 249 253 239 236 241 240 260 266 268 275 301 296 289 282 243 217 207 230
227 228 227 221 223 227 231 232 236 243 251 248 251 245 247 246 244 254 262 263 255 259 253 246 245 248 252 251 249 245 229 262 277 264 271 281 276 278 252 211 199 199 232 250
227 233 230 221 224 230 233 238 243 244 244 245 243 240 234 242 223 244 252 249 239 242 236 236 241 248 249 244 243 245 258 251 270 250 248 272 259 230 207 190 204 221 250 270
232 231 226 221 220 223 223 218 221 229 234 231 226 231 229 225 223 237 238 238 239 237 242 243 246 251 236 244 251 255 255 257 255 246 249 266 229 215 200 205 218 240 275 285
221 219 213 217 216 218 216 211 217 221 226 220 221 222 232 225 222 222 229 231 235 237 236 239 247 248 244 245 245 248 253 258 258 251 249 224 209 211 205 208 229 264 269 284
210 207 201 198 199 201 204 204 212 217 220 220 222 229 235 216 210 217 217 226 249 243 230 236 238 246 250 249 251 254 256 260 257 247 234 226 226 222 212 224 249 266 275 292
202 204 198 193 192 194 197 205 208 214 217 217 227 238 217 206 213 224 232 242 264 263 242 240 245 242 241 243 252 258 259 254 260 249 236 217 195 201 222 244 255 261 285 301
196 191 193 195 199 196 198 201 207 208 206 218 223 220 207 213 230 229 234 253 258 252 252 255 253 253 250 252 253 255 245 244 229 210 186 190 200 211 234 244 256 284 296 305
196 173 164 167 179 192 197 193 188 192 212 214 208 195 205 214 222 235 238 237 243 246 249 248 249 248 245 243 247 215 194 197 203 192 197 208 216 214 240 255 274 286 295 310
172 161 162 160 170 183 173 172 174 195 206 197 194 192 201 206 214 216 218 231 244 253 257 252 248 243 233 207 214 203 213 216 214 210 218 221 221 237 246 262 277 283 300 312
159 159 165 161 167 172 162 164 190 204 211 214 221 211 196 201 209 212 236 247 261 268 256 245 241 224 217 204 208 215 217 219 223 226 228 234 246 254 259 268 278 286 301 312
162 170 168 160 168 170 179 189 189 189 206 198 180 195 195 192 208 235 250 266 275 278 245 237 219 213 214 217 218 218 218 226 237 240 239 247 253 262 266 270 276 286 297 304
169 172 166 159 167 175 193 190 192 200 195 184 181 186 184 212 232 256 265 269 269 270 242 237 216 222 223 220 219 222 225 233 245 253 246 244 253 262 268 268 272 279 288 290
169 173 171 165 178 188 191 190 199 209 216 200 190 197 212 226 241 250 252 255 262 248 244 234 218 226 233 229 225 229 236 242 247 249 251 247 254 270 267 268 272 275 279 281
164 174 175 174 195 197 199 202 205 206 206 215 212 220 250 255 250 244 241 243 244 240 233 237 234 230 235 235 234 234 239 244 246 242 242 247 259 269 264 264 270 271 274 275
176 180 184 193 196 201 205 206 206 206 211 223 240 253 264 268 261 252 250 250 248 239 238 242 242 240 239 239 241 243 245 246 247 248 250 253 259 263 258 262 266 269 272 273
186 195 198 205 209 210 212 222 233 241 246 248 245 248 259 247 243 248 247 245 241 239 239 246 251 249 248 244 239 242 244 244 246 250 255 258 260 256 254 259 266 268 268 269
190 195 201 208 208 210 212 218 223 230 234 235 240 240 241 241 238 241 242 242 246 250 252 253 256 258 256 251 245 240 238 240 242 247 253 255 254 255 259 262 265 264 266 268